sat.trackr.live / text

‹ back to catalog

STARLINK-5759

NORAD 55592 · 2023-020Z

PAYLOAD ACTIVE UNKNOWN

§ Identity

Operator
Country
US
Launch date
2023-02-12
Launch site
AFETR
Launch vehicle
Mass (kg)
RCS (m²)

Purposes: comms

External: N2YO · Heavens-Above · Gunter

§ Orbital elements

Epoch: 2026-09-20T21:58:28.595136Z

Period
94.27 min
Inclination
43.0029°
Eccentricity
0.0001031
Mean motion
15.27575566 rev/d
Perigee alt
482.4 km
Apogee alt
483.8 km
Semi-major
6,861.2 km
B*
2.2591e-6
RAAN
342.3629°
Arg perigee
270.5476°
Mean anomaly
89.5258°
Rev number
19,877

§ Raw data

STARLINK-57591 55592U 23020Z   26263.91560874 -.00000200  00000+0  22591-5 0  99982 55592  43.0029 342.3629 0001031 270.5476  89.5258 15.27575566198779

JSON: /api/v1/satellites/55592 · /tle

For live sub-satellite position, see the globe view (requires WebGL).

§ Visibility from observer

Set your observer location to see the next 7 days of passes ≥ 10°. The values pass through the URL so the page stays shareable.

No JS? Fill the form by hand. The geolocation button needs JavaScript.